Location: Buchdorf
(48.7842°N, 10.8275°E)
Time: 11:44:45
(UTC+00:00)

Cosmos-2242 - Pass Details

Date: 09 April 2020
Orbit: 590 x 618 km, 82.5° (Epoch: 27 May)

Event Time Altitude Azimuth Distance (km) Brightness Sun altitude
Exits shadow 20:08:39 35° 79° (E) 987 3.7 -19.7°
Drops below altitude 10° 20:12:17 10° 25° (NNE) 1,978 5.8 -20.2°
Sets 20:14:38 0° 17° (NNE) 2,892 6.8 -20.5°
